START_TIME,STEP,MOV.,M15,t_acc.,M20,t_acc.
1979-07-21 18:00:43.580 ,0,1,0.,24.0,0.,24.0
1979-07-21 18:01:07.580 ,4,1,0.,24.0,0.,24.0
1979-07-21 18:01:31.580 ,7,1,0.,24.0,0.,24.0
1979-07-21 18:01:55.580 ,3,1,0.,24.0,0.,24.0
1979-07-21 18:02:19.580 ,0,1,0.,24.0,0.,24.0
1979-07-21 18:02:43.580 ,4,1,0.,24.0,0.,24.0
1979-07-21 18:03:07.580 ,7,1,0.,24.0,0.,24.0
1979-07-21 18:03:31.580 ,3,1,0.,24.0,0.,24.0
1979-07-21 18:03:55.580 ,0,1,0.,24.0,0.,24.0
1979-07-21 18:04:19.580 ,4,1,0.,24.0,0.,24.0
1979-07-21 18:04:43.580 ,7,1,0.,24.0,0.,24.0
1979-07-21 18:05:07.580 ,3,1,0.,24.0,0.,24.0
1979-07-21 18:05:31.580 ,0,0,0.,24.0,0.,24.0
1979-07-21 18:05:57.380 ,0,0,0.,24.0,0.,24.0
1979-07-21 18:06:19.580 ,0,0,0.,24.0,0.,24.0
1979-07-21 18:06:43.580 ,5,1,0.,24.0,0.,24.0
1979-07-21 18:07:07.580 ,5,0,0.,24.0,0.,24.0
1979-07-21 18:07:31.580 ,4,1,0.,24.0,0.,24.0
1979-07-21 18:07:55.580 ,4,0,0.,24.0,0.,24.0
1979-07-21 18:08:19.580 ,3,1,0.,24.0,0.,24.0
1979-07-21 18:08:43.580 ,3,0,0.,24.0,0.,24.0
1979-07-21 18:09:07.580 ,2,1,0.,24.0,0.,24.0
1979-07-21 18:09:31.580 ,2,0,0.,24.0,0.,24.0
1979-07-21 18:09:55.580 ,1,1,0.,24.0,0.,24.0
1979-07-21 18:10:19.580 ,1,0,0.,24.0,0.,24.0
1979-07-21 18:10:43.580 ,0,1,0.,24.0,0.,24.0
1979-07-21 18:11:07.580 ,0,0,0.,24.0,0.,24.0
1979-07-21 18:11:31.580 ,0,1,0.,24.0,0.,24.0
1979-07-21 18:11:55.580 ,0,0,0.,24.0,0.,24.0
1979-07-21 18:12:19.580 ,1,1,0.,24.0,0.,24.0
1979-07-21 18:12:43.580 ,1,0,0.,24.0,0.,24.0
1979-07-21 18:13:07.580 ,2,1,0.,24.0,0.,24.0
1979-07-21 18:13:31.580 ,2,0,0.,24.0,0.,24.0
1979-07-21 18:13:55.580 ,3,1,0.,24.0,0.,24.0
1979-07-21 18:14:19.580 ,3,0,0.,24.0,0.,24.0
1979-07-21 18:14:43.580 ,4,1,0.,24.0,0.,24.0
1979-07-21 18:15:07.580 ,4,0,0.,24.0,0.,24.0
1979-07-21 18:15:31.580 ,5,1,0.,24.0,0.,24.0
1979-07-21 18:15:55.580 ,5,0,0.,24.0,0.,24.0
1979-07-21 18:16:19.580 ,6,1,0.,24.0,0.,24.0
1979-07-21 18:16:43.580 ,6,0,0.,24.0,0.,24.0
1979-07-21 18:17:07.580 ,7,1,0.,24.0,0.,24.0
1979-07-21 18:17:31.580 ,7,0,0.,24.0,0.,24.0
1979-07-21 18:17:55.580 ,7,1,0.,24.0,0.,24.0
1979-07-21 18:18:19.580 ,7,0,0.,24.0,0.,24.0
1979-07-21 18:18:43.580 ,6,1,0.,24.0,0.,24.0
1979-07-21 18:19:07.580 ,6,0,0.,24.0,0.,24.0
1979-07-21 18:19:31.580 ,5,1,0.,24.0,0.,24.0
1979-07-21 18:19:55.580 ,5,0,0.,24.0,0.,24.0
1979-07-21 18:20:19.580 ,4,1,0.,24.0,0.,24.0
1979-07-21 18:20:43.580 ,4,0,0.,24.0,0.,24.0
1979-07-21 18:21:07.580 ,3,1,0.,24.0,0.,24.0
1979-07-21 18:21:31.580 ,3,0,0.,24.0,0.,24.0
1979-07-21 18:21:55.580 ,2,1,0.,24.0,0.,24.0
1979-07-21 18:22:19.580 ,2,0,0.,24.0,0.,24.0
1979-07-21 18:22:43.580 ,1,1,0.,24.0,0.,24.0
1979-07-21 18:23:07.580 ,1,0,0.,24.0,0.,24.0
1979-07-21 18:23:31.580 ,0,1,0.,24.0,0.,24.0
1979-07-21 18:23:55.580 ,0,0,0.,24.0,0.,24.0
1979-07-21 18:24:19.580 ,0,1,0.,24.0,0.,24.0
1979-07-21 18:24:43.580 ,0,0,0.,24.0,0.,24.0
1979-07-21 18:25:07.580 ,1,1,0.,24.0,0.,24.0
1979-07-21 18:25:31.580 ,1,0,0.,24.0,0.,24.0
1979-07-21 18:25:55.580 ,2,1,0.,24.0,0.,24.0
1979-07-21 18:26:19.580 ,2,0,0.,24.0,0.,24.0
1979-07-21 18:26:43.580 ,3,1,0.,24.0,0.,24.0
1979-07-21 18:27:07.580 ,3,0,0.,24.0,0.,24.0
1979-07-21 18:27:31.580 ,4,1,0.,24.0,0.,24.0
1979-07-21 18:27:55.580 ,4,0,0.,24.0,0.,24.0
1979-07-21 18:28:19.580 ,5,1,0.,24.0,0.,24.0
1979-07-21 18:28:43.580 ,5,0,0.,24.0,0.,24.0
1979-07-21 18:29:07.580 ,6,1,0.,24.0,0.,24.0
1979-07-21 18:29:31.580 ,6,0,0.,24.0,0.,24.0
1979-07-21 18:29:55.580 ,7,1,0.,24.0,0.,24.0
1979-07-21 18:30:19.580 ,7,0,0.,24.0,0.,24.0
1979-07-21 18:30:43.580 ,7,1,0.,24.0,0.,24.0
1979-07-21 18:31:07.580 ,7,0,0.,24.0,0.,24.0
1979-07-21 18:31:31.580 ,6,1,0.,24.0,0.,24.0
1979-07-21 18:31:55.580 ,6,0,0.,24.0,0.,24.0
1979-07-21 18:32:19.580 ,5,1,0.,24.0,0.,24.0
1979-07-21 18:32:43.580 ,5,0,0.,24.0,0.,24.0
1979-07-21 18:33:07.580 ,4,1,0.,24.0,0.,24.0
1979-07-21 18:33:31.580 ,4,0,0.,24.0,0.,24.0
1979-07-21 18:33:55.580 ,3,1,0.,24.0,0.,24.0
1979-07-21 18:34:19.580 ,3,0,0.,24.0,0.,24.0
1979-07-21 18:34:43.580 ,2,1,0.,24.0,0.,24.0
1979-07-21 18:35:07.580 ,2,0,0.,24.0,0.,24.0
1979-07-21 18:35:31.580 ,1,1,0.,24.0,0.,24.0
1979-07-21 18:35:55.580 ,1,0,0.,24.0,0.,24.0
1979-07-21 18:36:19.580 ,0,1,0.,24.0,0.,24.0
1979-07-21 18:36:43.580 ,0,0,0.,24.0,0.,24.0
1979-07-21 18:37:07.580 ,0,1,0.,24.0,0.,24.0
1979-07-21 18:37:31.580 ,0,0,0.,24.0,0.,24.0
1979-07-21 18:37:55.580 ,1,1,0.,24.0,0.,24.0
1979-07-21 18:38:19.580 ,1,0,0.,24.0,0.,24.0
1979-07-21 18:38:43.580 ,2,1,0.,24.0,0.,24.0
1979-07-21 18:39:07.580 ,2,0,0.,24.0,0.,24.0
1979-07-21 18:39:31.580 ,3,1,0.,24.0,0.,24.0
1979-07-21 18:39:55.580 ,3,0,0.,24.0,0.,24.0
1979-07-21 18:40:19.580 ,4,1,0.,24.0,0.,24.0
1979-07-21 18:40:43.580 ,4,0,0.,24.0,0.,24.0
1979-07-21 18:41:07.580 ,5,1,0.,24.0,0.,24.0
1979-07-21 18:41:31.580 ,5,0,0.,24.0,0.,24.0
1979-07-21 18:41:55.580 ,6,1,0.,24.0,0.,24.0
1979-07-21 18:42:19.580 ,6,0,0.,24.0,0.,24.0
1979-07-21 18:42:43.580 ,7,0,0.,24.0,0.,24.0
1979-07-21 18:43:07.580 ,7,0,0.,24.0,0.,24.0
1979-07-21 18:43:31.580 ,3,1,0.,24.0,0.,24.0
1979-07-21 18:43:55.580 ,0,1,0.,24.0,0.,24.0
1979-07-21 18:44:19.580 ,4,1,0.,24.0,0.,24.0
1979-07-21 18:44:43.580 ,7,1,0.,24.0,0.,24.0
1979-07-21 18:45:07.580 ,3,1,0.,24.0,0.,24.0
1979-07-21 18:45:31.580 ,0,1,0.,24.0,0.,24.0
1979-07-21 18:45:55.580 ,4,1,0.,24.0,0.,24.0
1979-07-21 18:46:19.580 ,7,1,0.,24.0,0.,24.0
1979-07-21 18:46:43.580 ,3,1,0.,24.0,0.,24.0
1979-07-21 18:47:07.580 ,0,1,0.,24.0,0.,24.0
1979-07-21 18:47:31.580 ,4,1,0.,24.0,0.,24.0
1979-07-21 18:47:55.580 ,7,1,0.,24.0,0.,24.0
1979-07-21 18:48:19.580 ,3,1,0.,24.0,0.,24.0
1979-07-21 18:48:43.580 ,0,1,0.,24.0,0.,24.0
1979-07-21 18:49:07.580 ,4,1,0.,24.0,0.,24.0
1979-07-21 18:49:31.580 ,7,1,0.,24.0,0.,24.0
1979-07-21 18:49:55.580 ,3,1,0.,24.0,0.,24.0
1979-07-21 18:50:19.580 ,0,1,0.,24.0,0.,24.0
1979-07-21 18:50:43.580 ,4,1,0.,24.0,0.,24.0
1979-07-21 18:51:07.580 ,7,1,0.,24.0,0.,24.0
1979-07-21 18:51:31.580 ,3,1,0.,24.0,0.,24.0
1979-07-21 18:51:55.580 ,0,1,0.,24.0,0.,24.0
1979-07-21 18:52:19.580 ,4,1,0.,24.0,0.,24.0
1979-07-21 18:52:43.580 ,7,1,0.,24.0,0.,24.0
1979-07-21 18:53:07.580 ,3,1,0.,24.0,0.,24.0
1979-07-21 18:53:31.580 ,0,1,0.,24.0,0.,24.0
1979-07-21 18:53:55.580 ,0,0,0.,24.0,0.,24.0
1979-07-21 18:54:19.580 ,0,0,0.,24.0,0.,24.0
1979-07-21 18:54:43.580 ,5,1,0.,24.0,0.,24.0
1979-07-21 18:55:07.580 ,5,0,0.,24.0,0.,24.0
1979-07-21 18:55:31.580 ,4,1,0.,24.0,0.,24.0
1979-07-21 18:55:55.580 ,4,0,0.,24.0,0.,24.0
1979-07-21 18:56:19.580 ,3,1,0.,24.0,0.,24.0
1979-07-21 18:56:43.580 ,3,0,0.,24.0,0.,24.0
1979-07-21 18:57:07.580 ,2,1,0.,24.0,0.,24.0
1979-07-21 18:57:31.580 ,2,0,0.,24.0,0.,24.0
1979-07-21 18:57:55.580 ,1,1,0.,24.0,0.,24.0
1979-07-21 18:58:19.580 ,1,0,0.,24.0,0.,24.0
1979-07-21 18:58:43.580 ,0,1,0.,24.0,0.,24.0
1979-07-21 18:59:07.580 ,0,0,0.,24.0,0.,24.0
1979-07-21 18:59:31.580 ,0,1,0.,24.0,0.,24.0
1979-07-21 18:59:55.580 ,0,0,0.,24.0,0.,24.0
1979-07-21 19:00:19.580 ,1,1,0.,24.0,0.,24.0
1979-07-21 19:00:43.580 ,1,0,0.,24.0,0.,24.0
1979-07-21 19:01:07.580 ,2,1,0.,24.0,0.,24.0
1979-07-21 19:01:31.580 ,2,0,0.,24.0,0.,24.0
1979-07-21 19:01:55.580 ,3,1,0.,24.0,0.,24.0
1979-07-21 19:02:19.580 ,3,0,0.,24.0,0.,24.0
1979-07-21 19:02:43.580 ,4,1,0.,24.0,0.,24.0
1979-07-21 19:03:07.580 ,4,0,0.,24.0,0.,24.0
1979-07-21 19:03:31.580 ,5,1,0.,24.0,0.,24.0
1979-07-21 19:03:55.580 ,5,0,0.,24.0,0.,24.0
1979-07-21 19:04:19.580 ,6,1,0.,24.0,0.,24.0
1979-07-21 19:04:43.580 ,6,0,0.,24.0,0.,24.0
1979-07-21 19:05:07.580 ,7,1,0.,24.0,0.,24.0
1979-07-21 19:05:31.580 ,7,0,0.,24.0,0.,24.0
1979-07-21 19:05:55.580 ,7,1,0.,24.0,0.,24.0
1979-07-21 19:06:19.580 ,7,0,0.,24.0,0.,24.0
1979-07-21 19:06:43.580 ,6,1,0.,24.0,0.,24.0
1979-07-21 19:07:07.580 ,6,0,0.,24.0,0.,24.0
1979-07-21 19:07:31.580 ,5,1,0.,24.0,0.,24.0
1979-07-21 19:07:55.580 ,5,0,0.,24.0,0.,24.0
1979-07-21 19:08:19.580 ,4,1,0.,24.0,0.,24.0
1979-07-21 19:08:43.580 ,4,0,0.,24.0,0.,24.0
1979-07-21 19:09:07.580 ,3,1,0.,24.0,0.,24.0
1979-07-21 19:09:31.580 ,3,0,0.,24.0,0.,24.0
1979-07-21 19:09:55.580 ,2,1,0.,24.0,0.,24.0
1979-07-21 19:10:19.580 ,2,0,0.,24.0,0.,24.0
1979-07-21 19:10:43.580 ,1,1,0.,24.0,0.,24.0
1979-07-21 19:11:07.580 ,1,0,0.,24.0,0.,24.0
1979-07-21 19:11:31.580 ,0,1,0.,24.0,0.,24.0
1979-07-21 19:11:55.580 ,0,0,0.,24.0,0.,24.0
1979-07-21 19:12:19.580 ,0,1,0.,24.0,0.,24.0
1979-07-21 19:12:43.580 ,0,0,0.,24.0,0.,24.0
1979-07-21 19:13:07.580 ,1,1,0.,24.0,0.,24.0
1979-07-21 19:13:31.580 ,1,0,0.,24.0,0.,24.0
1979-07-21 19:13:55.580 ,2,1,0.,24.0,0.,24.0
1979-07-21 19:14:19.580 ,2,0,0.,24.0,0.,24.0
1979-07-21 19:14:43.580 ,3,1,0.,24.0,0.,24.0
1979-07-21 19:15:07.580 ,3,0,0.,24.0,0.,24.0
1979-07-21 19:15:31.580 ,4,1,0.,24.0,0.,24.0
1979-07-21 19:15:55.580 ,4,0,0.,24.0,0.,24.0
1979-07-21 19:16:19.580 ,5,1,0.,24.0,0.,24.0
1979-07-21 19:16:43.580 ,5,0,0.,24.0,0.,24.0
1979-07-21 19:17:07.580 ,6,1,0.,24.0,0.,24.0
1979-07-21 19:17:31.580 ,6,0,0.,24.0,0.,24.0
1979-07-21 19:17:55.580 ,7,1,0.,24.0,0.,24.0
1979-07-21 19:18:19.580 ,7,0,0.,24.0,0.,24.0
1979-07-21 19:18:43.580 ,7,1,0.,24.0,0.,24.0
1979-07-21 19:19:07.580 ,7,0,0.,24.0,0.,24.0
1979-07-21 19:19:31.580 ,6,1,0.,24.0,0.,24.0
1979-07-21 19:19:55.580 ,6,0,0.,24.0,0.,24.0
1979-07-21 19:20:19.580 ,5,1,0.,24.0,0.,24.0
1979-07-21 19:20:43.580 ,5,0,0.,24.0,0.,24.0
1979-07-21 19:21:07.580 ,4,1,0.,24.0,0.,24.0
1979-07-21 19:21:31.580 ,4,0,0.,24.0,0.,24.0
1979-07-21 19:21:55.580 ,3,1,0.,24.0,0.,24.0
1979-07-21 19:22:19.580 ,3,0,0.,24.0,0.,24.0
1979-07-21 19:22:43.580 ,2,1,0.,24.0,0.,24.0
1979-07-21 19:23:07.580 ,2,0,0.,24.0,0.,24.0
1979-07-21 19:23:31.580 ,1,1,0.,24.0,0.,24.0
1979-07-21 19:23:55.580 ,1,0,0.,24.0,0.,24.0
1979-07-21 19:24:19.580 ,0,1,0.,24.0,0.,24.0
1979-07-21 19:24:43.580 ,0,0,0.,24.0,0.,24.0
1979-07-21 19:25:07.580 ,0,1,0.,24.0,0.,24.0
1979-07-21 19:25:31.580 ,0,0,0.,24.0,0.,24.0
1979-07-21 19:25:55.580 ,1,1,0.,24.0,0.,24.0
1979-07-21 19:26:19.580 ,1,0,0.,24.0,0.,24.0
1979-07-21 19:26:43.580 ,2,1,0.,24.0,0.,24.0
1979-07-21 19:27:07.580 ,2,0,0.,24.0,0.,24.0
1979-07-21 19:27:31.580 ,3,1,0.,24.0,0.,24.0
1979-07-21 19:27:55.580 ,3,0,0.,24.0,0.,24.0
1979-07-21 19:28:19.580 ,4,1,0.,24.0,0.,24.0
1979-07-21 19:28:43.580 ,4,0,0.,24.0,0.,24.0
1979-07-21 19:29:07.580 ,5,1,0.,24.0,0.,24.0
1979-07-21 19:29:31.580 ,5,0,0.,24.0,0.,24.0
1979-07-21 19:29:55.580 ,6,1,0.,24.0,0.,24.0
1979-07-21 19:30:19.580 ,6,0,0.,24.0,0.,24.0
1979-07-21 19:30:43.580 ,7,0,0.,24.0,0.,24.0
1979-07-21 19:31:07.580 ,7,0,0.,24.0,0.,24.0
1979-07-21 19:31:31.580 ,3,1,0.,24.0,0.,24.0
1979-07-21 19:31:55.580 ,0,1,0.,24.0,0.,24.0
1979-07-21 19:32:19.580 ,4,1,0.,24.0,0.,24.0
1979-07-21 19:32:43.580 ,7,1,0.,24.0,0.,24.0
1979-07-21 19:33:07.580 ,3,1,0.,24.0,0.,24.0
1979-07-21 19:33:31.580 ,0,1,0.,24.0,0.,24.0
1979-07-21 19:33:55.580 ,4,1,0.,24.0,0.,24.0
1979-07-21 19:34:19.580 ,7,1,0.,24.0,0.,24.0
1979-07-21 19:34:43.580 ,3,1,0.,24.0,0.,24.0
1979-07-21 19:35:07.580 ,0,1,0.,24.0,0.,24.0
1979-07-21 19:35:31.580 ,4,1,0.,24.0,0.,24.0
1979-07-21 19:35:55.580 ,7,1,0.,24.0,0.,24.0
1979-07-21 19:36:19.580 ,3,1,0.,24.0,0.,24.0
1979-07-21 19:36:43.580 ,0,1,0.,24.0,0.,24.0
1979-07-21 19:37:07.580 ,4,1,0.,24.0,0.,24.0
1979-07-21 19:37:31.580 ,7,1,0.,24.0,0.,24.0
1979-07-21 19:37:55.580 ,3,1,0.,24.0,0.,24.0
1979-07-21 19:38:19.580 ,0,1,0.,24.0,0.,24.0
1979-07-21 19:38:43.580 ,4,1,0.,24.0,0.,24.0
1979-07-21 19:39:07.580 ,7,1,0.,24.0,0.,24.0
1979-07-21 19:39:31.580 ,3,1,0.,24.0,0.,24.0
1979-07-21 19:39:55.580 ,0,1,0.,24.0,0.,24.0
1979-07-21 19:40:19.580 ,4,1,0.,24.0,0.,24.0
1979-07-21 19:40:43.580 ,7,1,0.,24.0,0.,24.0
1979-07-21 19:41:07.580 ,3,1,0.,24.0,0.,24.0
1979-07-21 19:41:31.580 ,0,1,0.,24.0,0.,24.0
1979-07-21 19:41:55.580 ,0,0,0.,24.0,0.,24.0
1979-07-21 19:42:19.580 ,0,0,0.,24.0,0.,24.0
1979-07-21 19:42:43.580 ,5,1,0.,24.0,0.,24.0
1979-07-21 19:43:07.580 ,5,0,0.,24.0,0.,24.0
1979-07-21 19:43:31.580 ,4,1,0.,24.0,0.,24.0
1979-07-21 19:43:55.580 ,4,0,0.,24.0,0.,24.0
1979-07-21 19:44:19.580 ,3,1,0.,24.0,0.,24.0
1979-07-21 19:44:43.580 ,3,0,0.,24.0,0.,24.0
1979-07-21 19:45:07.580 ,2,1,0.,24.0,0.,24.0
1979-07-21 19:45:31.580 ,2,0,0.,24.0,0.,24.0
1979-07-21 19:45:55.580 ,1,1,0.,24.0,0.,24.0
1979-07-21 19:46:19.580 ,1,0,0.,24.0,0.,24.0
1979-07-21 19:46:43.580 ,0,1,0.,24.0,0.,24.0
1979-07-21 19:47:07.580 ,0,0,0.,24.0,0.,24.0
1979-07-21 19:47:31.580 ,0,1,0.,24.0,0.,24.0
1979-07-21 19:47:55.580 ,0,0,0.,24.0,0.,24.0
1979-07-21 19:48:19.580 ,1,1,0.,24.0,0.,24.0
1979-07-21 19:48:43.580 ,1,0,0.,24.0,0.,24.0
1979-07-21 19:49:07.580 ,2,1,0.,24.0,0.,24.0
1979-07-21 19:49:31.580 ,2,0,0.,24.0,0.,24.0
1979-07-21 19:49:55.580 ,3,1,0.,24.0,0.,24.0
1979-07-21 19:50:19.580 ,3,0,0.,24.0,0.,24.0
1979-07-21 19:50:43.580 ,4,1,0.,24.0,0.,24.0
1979-07-21 19:51:07.580 ,4,0,0.,24.0,0.,24.0
1979-07-21 19:51:31.580 ,5,1,0.,24.0,0.,24.0
1979-07-21 19:51:55.580 ,5,0,0.,24.0,0.,24.0
1979-07-21 19:52:19.580 ,6,1,0.,24.0,0.,24.0
1979-07-21 19:52:43.580 ,6,0,0.,24.0,0.,24.0
1979-07-21 19:53:07.580 ,7,1,0.,24.0,0.,24.0
1979-07-21 19:53:31.580 ,7,0,0.,24.0,0.,24.0
1979-07-21 19:53:55.580 ,7,1,0.,24.0,0.,24.0
1979-07-21 19:54:19.580 ,7,0,0.,24.0,0.,24.0
1979-07-21 19:54:43.580 ,6,1,0.,24.0,0.,24.0
1979-07-21 19:55:07.580 ,6,0,0.,24.0,0.,24.0
1979-07-21 19:55:31.580 ,5,1,0.,24.0,0.,24.0
1979-07-21 19:55:55.580 ,5,0,0.,24.0,0.,24.0
1979-07-21 19:56:19.580 ,4,1,0.,24.0,0.,24.0
1979-07-21 19:56:43.580 ,4,0,0.,24.0,0.,24.0
1979-07-21 19:57:07.580 ,3,1,0.,24.0,0.,24.0
1979-07-21 19:57:31.580 ,3,0,0.,24.0,0.,24.0
1979-07-21 19:57:55.580 ,2,1,0.,24.0,0.,24.0
1979-07-21 19:58:19.580 ,2,0,0.,24.0,0.,24.0
1979-07-21 19:58:43.580 ,1,1,0.,24.0,0.,24.0
1979-07-21 19:59:07.580 ,1,0,0.,24.0,0.,24.0
1979-07-21 19:59:31.580 ,0,1,0.,24.0,0.,24.0
1979-07-21 19:59:55.580 ,0,0,0.,24.0,0.,24.0
1979-07-21 20:00:19.580 ,0,1,0.,24.0,0.,24.0
1979-07-21 20:00:43.580 ,0,0,0.,24.0,0.,24.0
1979-07-21 20:01:07.580 ,1,1,0.,24.0,0.,24.0
1979-07-21 20:01:31.580 ,1,0,0.,24.0,0.,24.0
1979-07-21 20:01:55.580 ,2,1,0.,24.0,0.,24.0
1979-07-21 20:02:19.580 ,2,0,0.,24.0,0.,24.0
1979-07-21 20:02:43.580 ,3,1,0.,24.0,0.,24.0
1979-07-21 20:03:07.580 ,3,0,0.,24.0,0.,24.0
1979-07-21 20:03:31.580 ,4,1,0.,24.0,0.,24.0
1979-07-21 20:03:55.580 ,4,0,0.,24.0,0.,24.0
1979-07-21 20:04:19.580 ,5,1,0.,24.0,0.,24.0
1979-07-21 20:04:43.580 ,5,0,0.,24.0,0.,24.0
1979-07-21 20:05:07.580 ,6,1,0.,24.0,0.,24.0
1979-07-21 20:05:31.580 ,6,0,0.,24.0,0.,24.0
1979-07-21 20:05:55.580 ,7,1,0.,24.0,0.,24.0
1979-07-21 20:06:19.580 ,7,0,0.,24.0,0.,24.0
1979-07-21 20:06:43.580 ,7,1,0.,24.0,0.,24.0
1979-07-21 20:07:07.580 ,7,0,0.,24.0,0.,24.0
1979-07-21 20:07:31.580 ,6,1,0.,24.0,0.,24.0
1979-07-21 20:07:55.580 ,6,0,0.,24.0,0.,24.0
1979-07-21 20:08:19.580 ,5,1,0.,24.0,0.,24.0
1979-07-21 20:08:43.580 ,5,0,0.,24.0,0.,24.0
1979-07-21 20:09:07.580 ,4,1,0.,24.0,0.,24.0
1979-07-21 20:09:31.580 ,4,0,0.,24.0,0.,24.0
1979-07-21 20:09:55.580 ,3,1,0.,24.0,0.,24.0
1979-07-21 20:10:19.580 ,3,0,0.,24.0,0.,24.0
1979-07-21 20:10:43.580 ,2,1,0.,24.0,0.,24.0
1979-07-21 20:11:07.580 ,2,0,0.,24.0,0.,24.0
1979-07-21 20:11:31.580 ,1,1,0.,24.0,0.,24.0
1979-07-21 20:11:55.580 ,1,0,0.,24.0,0.,24.0
1979-07-21 20:12:19.580 ,0,1,0.,24.0,0.,24.0
1979-07-21 20:12:43.580 ,0,0,0.,24.0,0.,24.0
1979-07-21 20:13:07.580 ,0,1,0.,24.0,0.,24.0
1979-07-21 20:13:31.580 ,0,0,0.,24.0,0.,24.0
1979-07-21 20:13:55.580 ,1,1,0.,24.0,0.,24.0
1979-07-21 20:14:19.580 ,1,0,0.,24.0,0.,24.0
1979-07-21 20:14:43.580 ,2,1,0.,24.0,0.,24.0
1979-07-21 20:15:07.580 ,2,0,0.,24.0,0.,24.0
1979-07-21 20:15:31.580 ,3,1,0.,24.0,0.,24.0
1979-07-21 20:15:55.580 ,3,0,0.,24.0,0.,24.0
1979-07-21 20:16:19.580 ,4,1,0.,24.0,0.,24.0
1979-07-21 20:16:43.580 ,4,0,0.,24.0,0.,24.0
1979-07-21 20:17:07.580 ,5,1,0.,24.0,0.,24.0
1979-07-21 20:17:31.580 ,5,0,0.,24.0,0.,24.0
1979-07-21 20:17:55.580 ,6,1,0.,24.0,0.,24.0
1979-07-21 20:18:19.580 ,6,0,0.,24.0,0.,24.0
1979-07-21 20:18:43.580 ,7,0,0.,24.0,0.,24.0
1979-07-21 20:19:07.580 ,7,0,0.,24.0,0.,24.0
1979-07-21 20:19:31.580 ,3,1,0.,24.0,0.,24.0
1979-07-21 20:19:55.580 ,0,1,0.,24.0,0.,24.0
1979-07-21 20:20:19.580 ,4,1,0.,24.0,0.,24.0
1979-07-21 20:20:43.580 ,7,1,0.,24.0,0.,24.0
1979-07-21 20:21:07.580 ,3,1,0.,24.0,0.,24.0
1979-07-21 20:21:31.580 ,0,1,0.,24.0,0.,24.0
1979-07-21 20:21:55.580 ,4,1,0.,24.0,0.,24.0
1979-07-21 20:22:19.580 ,7,1,0.,24.0,0.,24.0
1979-07-21 20:22:43.580 ,3,1,0.,24.0,0.,24.0
1979-07-21 20:23:07.580 ,0,1,0.,24.0,0.,24.0
1979-07-21 20:23:31.580 ,4,1,0.,24.0,0.,24.0
1979-07-21 20:23:55.580 ,7,1,0.,24.0,0.,24.0
1979-07-21 20:24:19.580 ,3,1,0.,24.0,0.,24.0
1979-07-21 20:24:43.580 ,0,1,0.,24.0,0.,24.0
1979-07-21 20:25:07.580 ,4,1,0.,24.0,0.,24.0
1979-07-21 20:25:31.580 ,7,1,0.,24.0,0.,24.0
1979-07-21 20:25:55.580 ,3,1,0.,24.0,0.,24.0
1979-07-21 20:26:19.580 ,0,1,0.,24.0,0.,24.0
1979-07-21 20:26:43.580 ,4,1,0.,24.0,0.,24.0
1979-07-21 20:27:07.580 ,7,1,0.,24.0,0.,24.0
1979-07-21 20:27:31.580 ,3,1,0.,24.0,0.,24.0
1979-07-21 20:27:55.580 ,0,1,0.,24.0,0.,24.0
1979-07-21 20:28:19.580 ,4,1,0.,24.0,0.,24.0
1979-07-21 20:28:43.580 ,7,1,0.,24.0,0.,24.0
1979-07-21 20:29:07.580 ,3,1,0.,24.0,0.,24.0
1979-07-21 20:29:31.580 ,0,1,0.,24.0,0.,24.0
1979-07-21 20:29:55.580 ,0,0,0.,24.0,0.,24.0
1979-07-21 20:30:19.580 ,0,0,0.,24.0,0.,24.0
1979-07-21 20:30:43.580 ,5,1,0.,24.0,0.,24.0
1979-07-21 20:31:07.580 ,5,0,0.,24.0,0.,24.0
1979-07-21 20:31:31.580 ,4,1,0.,24.0,0.,24.0
1979-07-21 20:31:55.580 ,4,0,0.,24.0,0.,24.0
1979-07-21 20:32:19.580 ,3,1,0.,24.0,0.,24.0
1979-07-21 20:32:43.580 ,3,0,0.,24.0,0.,24.0
1979-07-21 20:33:07.580 ,2,1,0.,24.0,0.,24.0
1979-07-21 20:33:31.580 ,2,0,0.,24.0,0.,24.0
1979-07-21 20:33:55.580 ,1,1,0.,24.0,0.,24.0
1979-07-21 20:34:19.570 ,1,0,0.,24.0,0.,24.0
1979-07-21 20:34:43.570 ,0,1,0.,24.0,0.,24.0
1979-07-21 20:35:07.570 ,0,0,0.,24.0,0.,24.0
1979-07-21 20:35:31.570 ,0,1,0.,24.0,0.,24.0
1979-07-21 20:35:55.570 ,0,0,0.,24.0,0.,24.0
1979-07-21 20:36:19.570 ,1,1,0.,24.0,0.,24.0
1979-07-21 20:36:43.570 ,1,0,0.,24.0,0.,24.0
1979-07-21 20:37:07.570 ,2,1,0.,24.0,0.,24.0
1979-07-21 20:37:31.570 ,2,0,0.,24.0,0.,24.0
1979-07-21 20:37:55.570 ,3,1,0.,24.0,0.,24.0
1979-07-21 20:38:19.570 ,3,0,0.,24.0,0.,24.0
1979-07-21 20:38:43.570 ,4,1,0.,24.0,0.,24.0
1979-07-21 20:39:07.570 ,4,0,0.,24.0,0.,24.0
1979-07-21 20:39:31.570 ,5,1,0.,24.0,0.,24.0
1979-07-21 20:39:55.570 ,5,0,0.,24.0,0.,24.0
1979-07-21 20:40:19.570 ,6,1,0.,24.0,0.,24.0
1979-07-21 20:40:43.570 ,6,0,0.,24.0,0.,24.0
1979-07-21 20:41:07.570 ,7,1,0.,24.0,0.,24.0
1979-07-21 20:41:31.570 ,7,0,0.,24.0,0.,24.0
1979-07-21 20:41:55.570 ,7,1,0.,24.0,0.,24.0
1979-07-21 20:42:19.570 ,7,0,0.,24.0,0.,24.0
1979-07-21 20:42:43.570 ,6,1,0.,24.0,0.,24.0
1979-07-21 20:43:07.570 ,6,0,0.,24.0,0.,24.0
1979-07-21 20:43:31.570 ,5,1,0.,24.0,0.,24.0
1979-07-21 20:43:55.570 ,5,0,0.,24.0,0.,24.0
1979-07-21 20:44:19.570 ,4,1,0.,24.0,0.,24.0
1979-07-21 20:44:43.570 ,4,0,0.,24.0,0.,24.0
1979-07-21 20:45:07.570 ,3,1,0.,24.0,0.,24.0
1979-07-21 20:45:31.570 ,3,0,0.,24.0,0.,24.0
1979-07-21 20:45:55.570 ,2,1,0.,24.0,0.,24.0
1979-07-21 20:46:19.570 ,2,0,0.,24.0,0.,24.0
1979-07-21 20:46:43.570 ,1,1,0.,24.0,0.,24.0
1979-07-21 20:47:07.570 ,1,0,0.,24.0,0.,24.0
1979-07-21 20:47:31.570 ,0,1,0.,24.0,0.,24.0
1979-07-21 20:47:55.570 ,0,0,0.,24.0,0.,24.0
1979-07-21 20:48:19.570 ,0,1,0.,24.0,0.,24.0
1979-07-21 20:48:43.570 ,0,0,0.,24.0,0.,24.0
1979-07-21 20:49:07.570 ,1,1,0.,24.0,0.,24.0
1979-07-21 20:49:31.570 ,1,0,0.,24.0,0.,24.0
1979-07-21 20:49:55.570 ,2,1,0.,24.0,0.,24.0
1979-07-21 20:50:19.570 ,2,0,0.,24.0,0.,24.0
1979-07-21 20:50:43.570 ,3,1,0.,24.0,0.,24.0
1979-07-21 20:51:07.570 ,3,0,0.,24.0,0.,24.0
1979-07-21 20:51:31.570 ,4,1,0.,24.0,0.,24.0
1979-07-21 20:51:55.570 ,4,0,0.,24.0,0.,24.0
1979-07-21 20:52:19.570 ,5,1,0.,24.0,0.,24.0
1979-07-21 20:52:43.570 ,5,0,0.,24.0,0.,24.0
1979-07-21 20:53:07.570 ,6,1,0.,24.0,0.,24.0
1979-07-21 20:53:31.570 ,6,0,0.,24.0,0.,24.0
1979-07-21 20:53:55.570 ,7,1,0.,24.0,0.,24.0
1979-07-21 20:54:19.570 ,7,0,0.,24.0,0.,24.0
1979-07-21 20:54:43.570 ,7,1,0.,24.0,0.,24.0
1979-07-21 20:55:07.570 ,7,0,0.,24.0,0.,24.0
1979-07-21 20:55:31.570 ,6,1,0.,24.0,0.,24.0
1979-07-21 20:55:55.570 ,6,0,0.,24.0,0.,24.0
1979-07-21 20:56:19.570 ,5,1,0.,24.0,0.,24.0
1979-07-21 20:56:43.570 ,5,0,0.,24.0,0.,24.0
1979-07-21 20:57:07.570 ,4,1,0.,24.0,0.,24.0
1979-07-21 20:57:31.570 ,4,0,0.,24.0,0.,24.0
1979-07-21 20:57:55.570 ,3,1,0.,24.0,0.,24.0
1979-07-21 20:58:19.570 ,3,0,0.,24.0,0.,24.0
1979-07-21 20:58:43.570 ,2,1,0.,24.0,0.,24.0
1979-07-21 20:59:07.570 ,2,0,0.,24.0,0.,24.0
1979-07-21 20:59:31.570 ,1,1,0.,24.0,0.,24.0
1979-07-21 20:59:55.570 ,1,0,0.,24.0,0.,24.0
1979-07-21 21:00:19.570 ,0,1,0.,24.0,0.,24.0
